Lapse_Rate
6.3 4.0 3.8 2.5 1.8 1.3 0.8 1.4 1.5 2.5 4.5 4.5 4.4 4.6 5.0 4.4 3.1 3.0 3.2 2.8 2.9 2.4 2.0 1.1 1.9 1.3 1.0 1.4 1.1 1.5 2.4 2.5
4.8 5.4 3.5 3.7 2.4 1.4 0.9 2.4 2.2 4.1 5.0 4.3 4.2 4.2 5.1 4.8 3.7 3.3 3.1 3.2 2.6 2.9 2.5 1.7 2.1 1.6 1.7 1.7 2.4 1.9 1.3 2.5
5.2 4.6 4.4 4.4 2.4 1.5 1.0 1.2 1.6 2.5 4.1 3.3 4.9 4.6 5.0 5.2 4.1 3.8 3.5 3.4 3.1 2.7 2.5 2.8 2.8 2.5 2.1 2.4 3.0 3.2 1.0 3.6
5.2 4.0 3.2 3.3 4.3 2.4 0.5 0.0 1.8 1.4 3.0 5.9 6.2 6.0 6.0 5.8 4.6 4.3 3.6 3.5 3.1 3.7 2.4 3.0 2.8 2.9 2.2 2.7 2.7 3.7 3.4 3.6
3.8 4.4 2.7 1.8 3.9 3.4 1.3 -0.2 1.1 2.4 5.0 5.9 5.8 5.3 5.3 4.8 3.3 3.2 3.8 3.9 3.5 4.2 3.2 3.2 2.7 2.6 3.1 3.1 3.0 3.9 3.1 3.1
3.7 3.5 2.9 1.2 1.2 2.2 2.7 1.1 1.3 2.7 5.3 4.9 5.9 6.4 6.5 6.5 5.2 4.3 4.2 3.8 3.6 3.6 3.1 3.4 3.4 3.0 3.5 3.4 3.2 4.1 3.5 2.9
2.9 4.0 3.8 3.2 0.4 1.6 2.5 2.5 2.1 3.7 4.8 6.1 6.0 5.9 6.1 5.8 5.4 4.7 4.0 3.1 3.4 3.6 3.2 3.4 3.5 3.2 3.3 3.2 3.2 3.8 3.5 3.8
0.0 0.2 2.3 2.7 -0.3 0.4 3.1 3.4 3.7 5.8 6.2 6.0 5.9 5.8 5.8 4.8 4.6 4.5 4.4 3.7 3.7 3.6 3.5 3.2 3.1 2.9 3.2 3.4 3.5 3.2 3.2 3.8
1.4 0.3 1.2 -0.6 1.5 -0.1 0.2 2.6 4.8 6.3 6.0 5.8 5.7 5.8 5.7 5.4 4.8 3.8 3.4 3.2 3.0 3.0 3.0 2.9 2.2 3.1 2.9 3.7 3.3 2.9 3.0 3.4
2.2 2.4 2.0 1.3 0.3 0.6 -0.4 0.7 5.4 6.3 5.5 5.7 5.4 5.3 5.0 4.6 4.4 4.0 3.4 3.5 3.4 2.4 2.8 2.3 1.7 2.3 2.9 3.1 3.8 2.5 2.7 3.2
3.6 3.4 1.6 0.5 0.8 1.4 1.3 4.1 6.6 5.9 5.7 5.4 5.0 5.0 4.9 4.0 3.9 4.1 3.3 3.7 4.0 2.5 2.0 2.4 2.1 2.4 3.2 3.5 3.7 2.4 2.7 1.7
3.3 3.7 3.8 1.3 0.9 4.6 4.6 5.6 5.9 5.3 5.0 4.9 5.0 5.0 4.6 4.1 3.8 3.5 3.4 3.5 3.4 2.4 1.9 1.9 1.9 1.8 2.3 3.5 2.3 1.9 2.1 1.9
4.9 2.1 2.1 3.5 1.4 1.7 3.1 4.7 4.6 5.4 5.3 4.7 4.8 4.5 4.4 3.1 2.9 2.8 2.6 3.0 2.9 2.7 2.5 2.0 0.9 0.6 1.2 1.3 2.2 1.6 1.4 1.4
5.4 3.8 2.4 3.8 3.3 2.8 2.7 2.9 4.7 4.8 4.8 4.5 4.2 3.4 3.2 1.7 1.4 1.6 2.7 2.8 2.8 2.3 2.0 0.6 0.1 0.2 0.5 1.1 1.7 1.9 2.0 2.0
3.9 4.6 3.1 3.8 3.3 3.2 3.3 3.5 2.7 2.7 2.9 3.1 2.4 1.3 0.7 0.3 0.1 1.0 1.5 2.3 1.9 1.4 1.4 0.9 0.4 0.3 0.9 1.3 1.8 2.3 2.5 2.6
5.1 5.0 4.0 4.3 4.1 4.0 4.0 3.3 3.7 3.1 2.0 0.8 -0.6 -1.7 -1.8 -1.9 -2.8 -2.5 -0.7 0.3 0.6 -0.5 -0.5 -0.1 0.1 0.6 0.9 1.4 1.7 2.4 3.0 2.8
5.1 5.4 5.0 4.8 5.0 4.7 4.5 2.5 2.2 2.9 2.2 0.7 0.5 0.1 -0.7 -1.6 -0.8 -0.4 -0.3 -0.8 -1.0 -0.5 -0.6 0.1 0.2 0.8 0.6 1.2 1.9 1.1 2.3 3.3
4.9 5.0 4.8 5.5 4.7 3.9 4.3 4.4 3.7 3.0 2.0 1.5 1.0 0.6 -0.1 -0.4 -0.5 -0.5 -0.6 -0.6 -0.1 0.1 0.3 0.8 1.1 0.8 0.9 1.7 1.8 2.0 2.2 2.3
4.6 5.7 5.7 6.0 5.4 4.6 4.4 4.8 4.3 3.4 2.6 2.2 1.5 1.1 0.4 0.2 -0.3 -0.3 -0.5 -0.2 -0.3 -0.1 0.4 0.8 1.1 0.9 1.2 2.0 1.7 2.9 3.3 3.1
Wind_Speed
21 21 24 24 25 24 26 24 24 23 16 14 12 12 11 9 11 11 22 22 25 19 11 10 14 7 8 8 9 4 9 10
22 18 23 25 24 24 25 25 23 17 14 14 13 15 14 13 12 16 21 21 22 16 9 10 12 12 11 10 9 12 4 9
19 19 17 25 29 27 25 27 25 21 17 17 14 16 15 13 11 14 18 19 22 15 14 13 14 11 12 12 13 8 3 11
18 17 17 19 27 28 27 29 28 26 25 15 11 10 10 11 11 12 15 17 20 18 14 14 13 11 12 14 15 16 12 9
13 14 16 16 22 30 29 28 29 26 26 20 23 19 16 14 17 16 17 20 18 17 15 16 15 11 14 15 13 13 13 15
15 16 16 18 18 26 28 29 28 28 28 26 21 21 16 12 11 16 17 17 19 18 17 16 15 12 13 16 15 15 13 14
12 11 12 12 11 20 25 27 29 28 28 28 27 27 22 15 17 14 14 14 14 17 18 17 16 14 14 13 14 16 14 13
17 16 16 12 15 19 20 25 28 28 28 26 27 25 23 22 19 15 18 14 12 18 20 17 14 15 14 13 13 12 13 13
15 17 15 9 14 20 24 26 26 26 27 26 22 22 14 14 16 13 14 15 15 16 18 16 16 16 13 13 11 10 12 12
16 16 8 13 12 18 23 26 26 25 24 21 20 19 19 17 16 13 12 12 12 14 17 17 16 17 17 16 11 11 10 10
17 13 10 9 8 3 13 18 20 20 21 18 17 18 16 13 12 14 16 14 14 14 15 15 14 15 15 15 10 9 11 6
7 12 12 6 9 5 3 9 19 20 20 17 17 15 15 13 12 11 14 13 15 16 15 14 13 13 12 12 9 10 11 9
10 6 7 9 8 10 6 5 9 12 12 15 13 13 13 11 10 12 15 16 15 16 14 13 11 11 12 11 11 9 11 9
8 7 7 4 4 8 8 6 4 7 8 10 11 8 10 8 10 12 14 14 15 14 14 14 14 14 14 13 14 13 13 13
7 6 5 3 5 8 7 6 6 6 7 8 10 9 8 9 10 12 12 14 15 14 13 13 13 13 13 12 12 12 12 12
8 7 6 5 7 8 8 10 4 5 7 9 8 10 10 9 9 9 9 10 10 10 12 10 12 11 10 13 12 13 13 11
10 9 6 9 10 8 8 12 13 8 8 11 6 9 10 10 9 9 10 10 10 11 11 13 13 9 15 18 15 10 11 12
11 10 6 7 9 10 8 7 10 12 14 10 7 6 9 9 9 10 10 9 9 8 8 9 9 7 16 17 15 9 10 10
9 8 7 6 5 8 6 6 8 7 14 15 12 9 7 5 6 7 8 9 11 11 9 10 10 8 19 19 17 10 9 10
Wind_Direction
232 205 201 197 194 189 188 190 188 187 185 178 179 180 185 183 186 184 183 176 177 179 178 171 174 174 170 168 151 131 140 135
236 218 200 196 195 191 190 189 191 180 183 181 181 186 187 190 189 186 182 184 179 180 177 168 175 176 176 164 147 140 124 131
245 230 205 195 192 193 187 193 187 186 187 192 191 189 190 188 180 186 183 180 180 180 176 182 180 172 168 168 158 151 127 164
240 238 223 196 193 191 190 191 189 188 190 186 189 183 184 185 184 185 187 183 183 183 177 176 176 174 173 173 169 173 167 178
233 227 227 208 198 196 192 189 189 191 186 182 185 183 184 191 190 187 185 185 182 182 178 175 177 176 179 181 177 178 170 180
248 245 224 221 198 193 192 191 191 188 189 188 188 191 196 188 186 183 188 184 181 181 176 178 181 182 183 179 180 183 183 182
317 283 256 235 193 199 191 187 193 190 190 190 190 192 188 182 182 181 185 185 181 177 181 183 182 182 184 185 184 187 187 192
326 309 292 229 185 185 192 193 192 191 192 192 192 191 190 188 181 179 179 183 190 187 183 182 181 184 184 183 183 185 189 193
322 305 273 233 210 188 186 191 193 190 190 191 190 188 187 186 185 179 184 187 191 184 183 179 176 178 180 184 185 187 188 191
338 325 337 318 210 197 193 187 190 189 187 184 185 184 180 183 184 178 179 181 184 177 184 179 174 177 176 179 186 181 182 190
346 352 356 2 352 288 180 185 190 186 182 180 181 179 175 178 177 179 177 177 176 168 171 177 176 179 177 180 183 173 167 151
0 355 348 20 45 28 309 197 177 176 175 182 183 178 179 179 184 169 167 163 160 165 166 168 170 168 166 173 160 150 150 141
315 339 16 0 57 70 36 240 202 195 189 163 179 177 174 166 160 161 158 161 161 165 164 158 150 148 151 147 148 136 132 127
302 340 360 9 23 78 83 58 202 196 183 164 161 160 164 155 146 151 158 154 157 157 157 152 153 155 151 156 151 153 157 158
278 307 313 170 126 91 86 46 54 104 125 145 147 137 134 132 134 145 150 153 151 152 156 152 154 155 155 156 161 165 163 163
241 250 274 162 117 123 126 104 43 59 97 100 98 107 112 107 106 110 119 129 137 137 136 138 146 153 161 164 166 169 168 165
223 228 241 179 163 150 129 126 129 95 60 76 61 112 96 105 117 117 122 124 131 138 148 152 157 167 166 164 163 166 170 172
222 215 244 252 163 144 131 135 132 129 113 95 80 83 102 115 119 120 125 125 126 128 130 140 147 137 155 157 154 161 167 174
198 205 206 241 152 126 127 137 122 144 127 136 135 96 69 80 92 112 125 139 141 141 143 145 148 160 164 165 159 161 167 173